Total_Precipitation_Accumulation
0.68 0.62 0.53 0.46 0.41 0.35 0.33 0.27 0.29 0.35 0.32 0.28 0.22 0.24 0.27 0.31 0.36 0.47 0.53 0.67 0.86 0.83 0.82 1.00 1.26 1.77 1.93
0.48 0.42 0.34 0.29 0.29 0.22 0.16 0.17 0.15 0.18 0.16 0.15 0.14 0.14 0.15 0.16 0.21 0.35 0.52 0.66 0.81 0.94 0.94 0.94 0.94 1.37 2.25
0.27 0.20 0.20 0.16 0.13 0.08 0.05 0.06 0.05 0.11 0.13 0.14 0.14 0.13 0.13 0.16 0.21 0.31 0.47 0.75 0.95 0.87 0.95 1.07 1.20 1.16 1.84
0.23 0.18 0.12 0.08 0.07 0.05 0.04 0.04 0.04 0.03 0.07 0.13 0.15 0.16 0.15 0.18 0.21 0.26 0.32 0.47 0.89 1.03 1.11 0.99 1.28 1.15 1.34
0.35 0.31 0.18 0.06 0.04 0.05 0.07 0.06 0.05 0.04 0.06 0.11 0.11 0.10 0.09 0.16 0.25 0.28 0.31 0.40 0.66 1.08 1.30 1.49 1.40 1.45 1.50
0.42 0.17 0.04 0.03 0.04 0.14 0.28 0.29 0.21 0.03 0.05 0.05 0.05 0.06 0.08 0.15 0.24 0.25 0.31 0.42 0.50 0.72 0.89 0.94 1.21 1.30 1.26
0.09 0.07 0.08 0.13 0.42 0.49 0.31 0.27 0.16 0.03 0.09 0.13 0.08 0.10 0.13 0.16 0.24 0.29 0.36 0.45 0.53 0.60 0.69 0.75 0.89 1.07 0.97
0.05 0.11 0.25 0.29 0.26 0.30 0.22 0.18 0.10 0.05 0.11 0.29 0.11 0.11 0.08 0.16 0.30 0.24 0.30 0.42 0.55 0.62 0.65 0.74 0.78 0.92 0.83
0.15 0.13 0.07 0.04 0.05 0.29 0.39 0.39 0.26 0.05 0.06 0.22 0.16 0.13 0.11 0.17 0.33 0.39 0.42 0.45 0.44 0.40 0.39 0.41 0.60 0.70 0.75
0.02 0.00 0.01 0.02 0.07 0.17 0.48 0.97 0.49 0.39 0.07 0.48 0.30 0.24 0.58 0.20 0.34 0.44 0.42 0.44 0.40 0.39 0.37 0.38 0.42 0.46 0.49
0.00 0.00 0.01 0.01 0.04 0.08 0.23 0.88 1.15 0.71 0.12 1.01 1.02 0.29 0.67 0.36 0.38 0.47 0.44 0.51 0.59 0.70 0.79 0.64 0.58 0.59 0.72
0.03 0.02 0.02 0.03 0.03 0.04 0.09 0.21 0.46 0.83 0.34 0.60 1.42 0.57 0.93 0.70 0.48 0.48 0.49 0.64 0.93 1.16 1.26 0.79 0.72 0.68 0.74
0.10 0.05 0.04 0.05 0.05 0.07 0.12 0.17 0.22 0.28 0.35 0.43 0.86 0.82 1.05 0.96 0.62 0.44 0.63 0.73 0.85 1.00 1.08 1.14 0.99 0.71 0.62
0.20 0.08 0.04 0.06 0.08 0.17 0.37 0.30 0.42 0.30 0.34 0.44 0.58 0.80 0.85 0.56 0.70 0.63 0.58 0.92 0.91 0.93 0.90 1.07 1.09 0.71 0.35
0.18 0.17 0.10 0.10 0.12 0.21 0.47 0.63 0.72 0.53 0.46 0.41 0.32 0.32 0.44 0.50 0.62 0.49 0.54 0.71 1.02 1.05 0.87 1.05 0.99 0.83 0.49
0.19 0.20 0.30 0.29 0.32 0.31 0.52 0.75 0.74 0.56 0.56 0.46 0.34 0.31 0.31 0.31 0.48 0.73 0.69 0.77 1.00 0.90 0.80 0.86 0.94 1.00 0.65
0.35 0.38 0.42 0.35 0.37 0.47 0.56 0.60 0.58 0.50 0.39 0.27 0.35 0.61 0.71 0.34 0.27 0.61 1.17 0.99 0.75 0.66 0.60 0.62 0.82 0.89 0.58